Regional Weather Roundup
Issued by NWS Cleveland, OH

Home | Current Version | Previous Version | Text Only | Print | Product List | Glossary Off
Versions: 1 2 3 4 5 6 7 8 9 10 11 12 13 14 15 16 17 18 19 20 21 22 23 24 25 26 27 28 29 30 31 32 33 34 35 36 37 38 39 40 41 42 43 44 45 46 47 48 49 50

000
ASUS41 KCLE 021100
RWRCLE
OHIO REGIONAL WEATHER ROUNDUP
NATIONAL WEATHER SERVICE WILMINGTON, OH
600 AM EST MON MAR 02 2015

NOTE: "FAIR" INDICATES FEW OR NO CLOUDS BELOW 12,000 FEET WITH NO
SIGNIFICANT WEATHER AND/OR OBSTRUCTIONS TO VISIBILITY.

OHZ001>008-015>018-024>027-034-035-043-044-021200-
   NORTHWEST OHIO

CITY           SKY/WX    TMP DP  RH WIND       PRES   REMARKS
DEFIANCE       CLEAR     15  10  80 SW6       30.40R WCI   6
FINDLAY        PTCLDY    15  10  80 W15       30.38R WCI   0
TOLEDO EXPRESS CLEAR     14  10  84 W10       30.36R WCI   1
TOLEDO EXEC    CLEAR     17  11  77 W8        30.37R WCI   7
LIMA           PTCLDY    15  10  80 W12       30.39R HAZE    WCI   2
$$

OHZ009>014-019>023-028>033-038-089-021200-
   NORTHEAST OHIO

CITY           SKY/WX    TMP DP  RH WIND       PRES   REMARKS
CLE-HOPKINS    CLOUDY    20  15  81 SW9       30.36R WCI   9
CLE-LAKEFRONT  CLOUDY    22  16  78 W14       30.33R WCI   9
CUY CO. ARPT   NOT AVBL
LORAIN-ELYRIA  CLOUDY    20  15  81 W10       30.34R WCI   9
ASHTABULA      CLOUDY    21  15  78 W13       30.28R WCI   9
AKRON-CANTON   LGT SNOW  22  16  78 NW10      30.31R WCI  11
WOOSTER        NOT AVBL
MANSFIELD      MOCLDY    18  14  84 W9        30.32R WCI   7
YOUNGSTOWN     LGT SNOW  20  16  84 W12       30.27R WCI   8
$$

OHZ042-051>053-060>062-070>072-077>081-021200-
  SOUTHWEST OHIO

CITY           SKY/WX    TMP DP  RH WIND       PRES   REMARKS
CINC-COVINGTON PTCLDY    23  17  78 NW12      30.45R WCI  12
CINC-LUNKEN    PTCLDY    24  17  74 NW6       30.49R WCI  17
HAMILTON       PTCLDY    21  16  81 NW7       30.47R WCI  12
DAYTON         NOT AVBL
WRIGHT-PAT AFB CLOUDY    19  14  80 NW14      30.44R WCI   6
DAYTON GENERAL PTCLDY    21  15  78 NW12      30.42R WCI   9
WILMINGTON     PTCLDY    21  15  78 NW14      30.42R WCI   8
$$

OHZ036-037-039>041-045>050-054>059-063>069-073>076-082>088-021200-
  CENTRAL AND SOUTHEAST OHIO

CITY           SKY/WX    TMP DP  RH WIND       PRES   REMARKS
COLUMBUS       CLOUDY    21  14  74 NW17G25   30.41R WCI   7
OSU AIRPORT    CLOUDY    21  14  74 NW15      30.40R WCI   8
BOLTON FIELD   NOT AVBL
RICKENBACK AFB NOT AVBL
NEWARK         CLOUDY    22  15  75 NW13      30.39R WCI  10
MARION         MOCLDY    18  13  80 W9        30.38R WCI   7
LANCASTER      CLOUDY    23  16  74 NW10      30.41R WCI  12
ZANESVILLE     CLOUDY    24  17  74 NW16      30.37R WCI  11
NEW PHILLY     CLOUDY    24  18  77 NW10G17   30.35R HAZE    WCI  14
$$


USA.gov is the U.S. government's official web portal to all federal, state and local government web resources and services.